Regional Weather Roundup
Issued by NWS

Home | Current Version | Previous Version | Text Only | Print | Product List | Glossary On
Versions: 1 2 3 4 5 6 7 8 9 10 11 12 13 14 15 16 17 18 19 20 21 22 23 24 25 26 27 28
000
ASUS45 KREV 271310
RWRNV
NEVADA REGIONAL WEATHER ROUNDUP
NATIONAL WEATHER SERVICE RENO NV
600 AM PDT THU APR 27 2017

NOTE: "FAIR" INDICATES FEW OR NO CLOUDS BELOW 12,000 FEET WITH NO
SIGNIFICANT WEATHER AND/OR OBSTRUCTIONS TO VISIBILITY.

NVZ001-003-004-271400-
WESTERN NEVADA

CITY           SKY/WX    TMP DP  RH WIND       PRES   REMARKS
RENO           PTCLDY    44  38  79 N10       29.99R
CARSON CITY    MOCLDY    46  39  76 N6        29.98S
MINDEN         CLOUDY    48  32  53 W6        29.98S
FALLON         MOCLDY    46  41  82 SW6       29.96S
LOVELOCK       MOCLDY    43  27  53 E3        29.95R
HAWTHORNE      PTCLDY    48  37  66 NW16      29.95R
$$

NVZ002-CAZ072-073-271400-
NORTHERN AND CENTRAL SIERRA

CITY           SKY/WX    TMP DP  RH WIND       PRES   REMARKS
S. LAKE TAHOE  PTCLDY    36  33  89 CALM      30.01S
TRUCKEE        PTCLDY    36  34  93 CALM      30.01F
SQUAW VLY 8000   N/A     32  32 100 W8          N/A
SUSANVILLE     CLEAR     41  34  75 W14       30.00S
MAMMOTH LAKES  FAIR      46   8  21 NW15G25   29.95F
BRIDGEPORT       N/A     42  23  46 W6        29.97S
$$

NVZ030-031-036-271400-
NORTHERN NEVADA

CITY           SKY/WX    TMP DP  RH WIND       PRES   REMARKS
ELKO           CLOUDY    34  28  79 CALM      29.89S
WINNEMUCCA     MOCLDY    35  29  78 W7        29.92F
WENDOVER       CLEAR     42  20  41 CALM      29.85R
$$

NVZ035-037-271400-
CENTRAL NEVADA

CITY           SKY/WX    TMP DP  RH WIND       PRES   REMARKS
ELY            PTCLDY    33  30  88 W6        29.89R
EUREKA           N/A     35  30  82 CALM      29.91R
$$

NVZ013-014-271400-
SOUTH CENTRAL NEVADA

CITY           SKY/WX    TMP DP  RH WIND       PRES   REMARKS
TONOPAH        PTCLDY    46  32  58 N21G31    29.90S
$$

NVZ017-020-022-271400-
SOUTHERN NEVADA

CITY           SKY/WX    TMP DP  RH WIND       PRES   REMARKS
LAS VEGAS      PTCLDY    71  23  16 NW24G30   29.70R
N. LAS VEGAS   CLEAR     69  24  18 N8G16     29.73R
NELLIS AFB     CLEAR     69  28  21 W20G29    29.70R
HENDERSON      CLEAR     66  28  24 N6        29.75R
MERCURY        CLEAR     59  28  30 E7        29.82R
$$




USA.gov is the U.S. government's official web portal to all federal, state and local government web resources and services.